Year,Month,Day,Hour,Minute,Value (Times are PST for windgust in km/hr)
2007,05,09,00,00,4.80
2007,05,09,00,01,6.40
2007,05,09,00,02,9.60
2007,05,09,00,03,4.80
2007,05,09,00,04,6.40
2007,05,09,00,05,9.60
2007,05,09,00,06,4.80
2007,05,09,00,07,8.10
2007,05,09,00,08,0.00
2007,05,09,00,09,0.00
2007,05,09,00,10,0.00
2007,05,09,00,11,1.60
2007,05,09,00,12,0.00
2007,05,09,00,13,0.00
2007,05,09,00,14,0.00
2007,05,09,00,15,0.00
2007,05,09,00,16,3.20
2007,05,09,00,17,6.40
2007,05,09,00,18,8.10
2007,05,09,00,19,16.10
2007,05,09,00,20,6.40
2007,05,09,00,21,4.80
2007,05,09,00,22,9.60
2007,05,09,00,23,9.60
2007,05,09,00,24,8.10
2007,05,09,00,25,6.40
2007,05,09,00,26,4.80
2007,05,09,00,27,4.80
2007,05,09,00,28,8.10
2007,05,09,00,29,8.10
2007,05,09,00,30,8.10
2007,05,09,00,31,8.10
2007,05,09,00,32,8.10
2007,05,09,00,33,6.40
2007,05,09,00,34,4.80
2007,05,09,00,35,8.10
2007,05,09,00,36,6.40
2007,05,09,00,37,3.20
2007,05,09,00,38,8.10
2007,05,09,00,39,3.20
2007,05,09,00,40,0.00
2007,05,09,00,41,0.00
2007,05,09,00,42,0.00
2007,05,09,00,43,0.00
2007,05,09,00,44,11.30
2007,05,09,00,45,6.40
2007,05,09,00,46,3.20
2007,05,09,00,47,3.20
2007,05,09,00,48,1.60
2007,05,09,00,49,0.00
2007,05,09,00,50,0.00
2007,05,09,00,51,0.00
2007,05,09,00,52,0.00
2007,05,09,00,53,0.00
2007,05,09,00,54,1.60
2007,05,09,00,55,3.20
2007,05,09,00,56,8.10
2007,05,09,00,57,0.00
2007,05,09,00,58,1.60
2007,05,09,00,59,3.20
2007,05,09,01,00,4.80
2007,05,09,01,01,1.60
2007,05,09,01,02,4.80
2007,05,09,01,03,6.40
2007,05,09,01,04,6.40
2007,05,09,01,05,8.10
2007,05,09,01,06,6.40
2007,05,09,01,07,6.40
2007,05,09,01,08,8.10
2007,05,09,01,09,6.40
2007,05,09,01,10,4.80
2007,05,09,01,11,4.80
2007,05,09,01,12,3.20
2007,05,09,01,13,1.60
2007,05,09,01,14,4.80
2007,05,09,01,15,0.00
2007,05,09,01,16,0.00
2007,05,09,01,17,1.60
2007,05,09,01,18,8.10
2007,05,09,01,19,6.40
2007,05,09,01,20,0.00
2007,05,09,01,21,0.00
2007,05,09,01,22,0.00
2007,05,09,01,23,1.60
2007,05,09,01,24,0.00
2007,05,09,01,25,0.00
2007,05,09,01,26,4.80
2007,05,09,01,27,4.80
2007,05,09,01,28,9.60
2007,05,09,01,29,6.40
2007,05,09,01,30,3.20
2007,05,09,01,31,3.20
2007,05,09,01,32,4.80
2007,05,09,01,33,9.60
2007,05,09,01,34,8.10
2007,05,09,01,35,6.40
2007,05,09,01,36,6.40
2007,05,09,01,37,4.80
2007,05,09,01,38,4.80
2007,05,09,01,39,3.20
2007,05,09,01,40,1.60
2007,05,09,01,41,3.20
2007,05,09,01,42,6.40
2007,05,09,01,43,6.40
2007,05,09,01,44,6.40
2007,05,09,01,45,4.80
2007,05,09,01,46,4.80
2007,05,09,01,47,8.10
2007,05,09,01,48,1.60
2007,05,09,01,49,4.80
2007,05,09,01,50,1.60
2007,05,09,01,51,1.60
2007,05,09,01,52,3.20
2007,05,09,01,53,3.20
2007,05,09,01,54,9.60
2007,05,09,01,55,6.40
2007,05,09,01,56,3.20
2007,05,09,01,57,3.20
2007,05,09,01,58,4.80
2007,05,09,01,59,4.80
2007,05,09,02,00,1.60
2007,05,09,02,01,6.40
2007,05,09,02,02,1.60
2007,05,09,02,03,1.60
2007,05,09,02,04,1.60
2007,05,09,02,05,1.60
2007,05,09,02,06,4.80
2007,05,09,02,07,0.00
2007,05,09,02,08,1.60
2007,05,09,02,09,3.20
2007,05,09,02,10,3.20
2007,05,09,02,11,0.00
2007,05,09,02,12,1.60
2007,05,09,02,13,1.60
2007,05,09,02,14,0.00
2007,05,09,02,15,4.80
2007,05,09,02,16,3.20
2007,05,09,02,17,3.20
2007,05,09,02,18,0.00
2007,05,09,02,19,4.80
2007,05,09,02,20,3.20
2007,05,09,02,21,1.60
2007,05,09,02,22,6.40
2007,05,09,02,23,4.80
2007,05,09,02,24,0.00
2007,05,09,02,25,1.60
2007,05,09,02,26,0.00
2007,05,09,02,27,0.00
2007,05,09,02,28,0.00
2007,05,09,02,29,0.00
2007,05,09,02,30,0.00
2007,05,09,02,31,0.00
2007,05,09,02,32,0.00
2007,05,09,02,33,0.00
2007,05,09,02,34,0.00
2007,05,09,02,35,0.00
2007,05,09,02,36,0.00
2007,05,09,02,37,0.00
2007,05,09,02,38,0.00
2007,05,09,02,39,1.60
2007,05,09,02,40,1.60
2007,05,09,02,41,0.00
2007,05,09,02,42,4.80
2007,05,09,02,43,4.80
2007,05,09,02,44,0.00
2007,05,09,02,45,0.00
2007,05,09,02,46,0.00
2007,05,09,02,47,0.00
2007,05,09,02,48,0.00
2007,05,09,02,49,0.00
2007,05,09,02,50,0.00
2007,05,09,02,51,0.00
2007,05,09,02,52,0.00
2007,05,09,02,53,0.00
2007,05,09,02,54,0.00
2007,05,09,02,55,0.00
2007,05,09,02,56,0.00
2007,05,09,02,57,0.00
2007,05,09,02,58,0.00
2007,05,09,02,59,0.00
2007,05,09,03,00,0.00
2007,05,09,03,01,0.00
2007,05,09,03,02,0.00
2007,05,09,03,03,0.00
2007,05,09,03,04,0.00
2007,05,09,03,05,0.00
2007,05,09,03,06,0.00
2007,05,09,03,07,0.00
2007,05,09,03,08,0.00
2007,05,09,03,09,0.00
2007,05,09,03,10,0.00
2007,05,09,03,11,0.00
2007,05,09,03,12,0.00
2007,05,09,03,13,0.00
2007,05,09,03,14,0.00
2007,05,09,03,15,0.00
2007,05,09,03,16,0.00
2007,05,09,03,17,0.00
2007,05,09,03,18,0.00
2007,05,09,03,19,0.00
2007,05,09,03,20,0.00
2007,05,09,03,21,0.00
2007,05,09,03,22,0.00
2007,05,09,03,23,1.60
2007,05,09,03,24,0.00
2007,05,09,03,25,0.00
2007,05,09,03,26,0.00
2007,05,09,03,27,0.00
2007,05,09,03,28,0.00
2007,05,09,03,29,0.00
2007,05,09,03,30,0.00
2007,05,09,03,31,0.00
2007,05,09,03,32,0.00
2007,05,09,03,33,0.00
2007,05,09,03,34,0.00
2007,05,09,03,35,0.00
2007,05,09,03,36,0.00
2007,05,09,03,37,0.00
2007,05,09,03,38,0.00
2007,05,09,03,39,0.00
2007,05,09,03,40,1.60
2007,05,09,03,41,0.00
2007,05,09,03,42,0.00
2007,05,09,03,43,0.00
2007,05,09,03,44,0.00
2007,05,09,03,45,0.00
2007,05,09,03,46,0.00
2007,05,09,03,47,0.00
2007,05,09,03,48,0.00
2007,05,09,03,49,3.20
2007,05,09,03,50,3.20
2007,05,09,03,51,4.80
2007,05,09,03,52,4.80
2007,05,09,03,53,0.00
2007,05,09,03,54,0.00
2007,05,09,03,55,0.00
2007,05,09,03,56,0.00
2007,05,09,03,57,0.00
2007,05,09,03,58,0.00
2007,05,09,03,59,0.00
2007,05,09,04,00,0.00
2007,05,09,04,01,0.00
2007,05,09,04,02,0.00
2007,05,09,04,03,0.00
2007,05,09,04,04,0.00
2007,05,09,04,05,0.00
2007,05,09,04,06,0.00
2007,05,09,04,07,0.00
2007,05,09,04,08,0.00
2007,05,09,04,09,0.00
2007,05,09,04,10,0.00
2007,05,09,04,11,0.00
2007,05,09,04,12,0.00
2007,05,09,04,13,1.60
2007,05,09,04,14,0.00
2007,05,09,04,15,4.80
2007,05,09,04,16,3.20
2007,05,09,04,17,0.00
2007,05,09,04,18,0.00
2007,05,09,04,19,0.00
2007,05,09,04,20,0.00
2007,05,09,04,21,0.00
2007,05,09,04,22,0.00
2007,05,09,04,23,1.60
2007,05,09,04,24,0.00
2007,05,09,04,25,0.00
2007,05,09,04,26,0.00
2007,05,09,04,27,0.00
2007,05,09,04,28,0.00
2007,05,09,04,29,1.60
2007,05,09,04,30,0.00
2007,05,09,04,31,0.00
2007,05,09,04,32,0.00
2007,05,09,04,33,0.00
2007,05,09,04,34,0.00
2007,05,09,04,35,0.00
2007,05,09,04,36,0.00
2007,05,09,04,37,0.00
2007,05,09,04,38,0.00
2007,05,09,04,39,0.00
2007,05,09,04,40,0.00
2007,05,09,04,41,0.00
2007,05,09,04,42,0.00
2007,05,09,04,43,3.20
2007,05,09,04,44,3.20
2007,05,09,04,45,0.00
2007,05,09,04,46,0.00
2007,05,09,04,47,1.60
2007,05,09,04,48,0.00
2007,05,09,04,49,0.00
2007,05,09,04,50,0.00
2007,05,09,04,51,0.00
2007,05,09,04,52,0.00
2007,05,09,04,53,0.00
2007,05,09,04,54,0.00
2007,05,09,04,55,0.00
2007,05,09,04,56,0.00
2007,05,09,04,57,0.00
2007,05,09,04,58,0.00
2007,05,09,04,59,0.00
2007,05,09,05,00,0.00
2007,05,09,05,01,0.00
2007,05,09,05,02,0.00
2007,05,09,05,03,0.00
2007,05,09,05,04,1.60
2007,05,09,05,05,1.60
2007,05,09,05,06,3.20
2007,05,09,05,07,1.60
2007,05,09,05,08,0.00
2007,05,09,05,09,0.00
2007,05,09,05,10,0.00
2007,05,09,05,11,0.00
2007,05,09,05,12,0.00
2007,05,09,05,13,0.00
2007,05,09,05,14,0.00
2007,05,09,05,15,0.00
2007,05,09,05,16,0.00
2007,05,09,05,17,1.60
2007,05,09,05,18,0.00
2007,05,09,05,19,0.00
2007,05,09,05,20,0.00
2007,05,09,05,21,0.00
2007,05,09,05,22,1.60
2007,05,09,05,23,1.60
2007,05,09,05,24,1.60
2007,05,09,05,25,0.00
2007,05,09,05,26,0.00
2007,05,09,05,27,0.00
2007,05,09,05,28,0.00
2007,05,09,05,29,0.00
2007,05,09,05,30,0.00
2007,05,09,05,31,0.00
2007,05,09,05,32,0.00
2007,05,09,05,33,0.00
2007,05,09,05,34,0.00
2007,05,09,05,35,0.00
2007,05,09,05,36,0.00
2007,05,09,05,37,1.60
2007,05,09,05,38,0.00
2007,05,09,05,39,0.00
2007,05,09,05,40,1.60
2007,05,09,05,41,0.00
2007,05,09,05,42,3.20
2007,05,09,05,43,3.20
2007,05,09,05,44,1.60
2007,05,09,05,45,0.00
2007,05,09,05,46,1.60
2007,05,09,05,47,0.00
2007,05,09,05,48,0.00
2007,05,09,05,49,0.00
2007,05,09,05,50,0.00
2007,05,09,05,51,0.00
2007,05,09,05,52,0.00
2007,05,09,05,53,0.00
2007,05,09,05,54,0.00
2007,05,09,05,55,0.00
2007,05,09,05,56,0.00
2007,05,09,05,57,0.00
2007,05,09,05,58,0.00
2007,05,09,05,59,0.00
2007,05,09,06,00,0.00
2007,05,09,06,01,0.00
2007,05,09,06,02,0.00
2007,05,09,06,03,0.00
2007,05,09,06,04,0.00
2007,05,09,06,05,0.00
2007,05,09,06,06,0.00
2007,05,09,06,07,0.00
2007,05,09,06,08,0.00
2007,05,09,06,09,0.00
2007,05,09,06,10,0.00
2007,05,09,06,11,0.00
2007,05,09,06,12,0.00
2007,05,09,06,13,0.00
2007,05,09,06,14,0.00
2007,05,09,06,15,0.00
2007,05,09,06,16,0.00
2007,05,09,06,17,0.00
2007,05,09,06,18,0.00
2007,05,09,06,19,0.00
2007,05,09,06,20,0.00
2007,05,09,06,21,0.00
2007,05,09,06,22,0.00
2007,05,09,06,23,0.00
2007,05,09,06,24,0.00
2007,05,09,06,25,0.00
2007,05,09,06,26,0.00
2007,05,09,06,27,0.00
2007,05,09,06,28,0.00
2007,05,09,06,29,0.00
2007,05,09,06,30,0.00
2007,05,09,06,31,0.00
2007,05,09,06,32,0.00
2007,05,09,06,33,0.00
2007,05,09,06,34,0.00
2007,05,09,06,35,0.00
2007,05,09,06,36,0.00
2007,05,09,06,37,0.00
2007,05,09,06,38,0.00
2007,05,09,06,39,0.00
2007,05,09,06,40,0.00
2007,05,09,06,41,0.00
2007,05,09,06,42,0.00
2007,05,09,06,43,0.00
2007,05,09,06,44,0.00
2007,05,09,06,45,0.00
2007,05,09,06,46,0.00
2007,05,09,06,47,0.00
2007,05,09,06,48,0.00
2007,05,09,06,49,0.00
2007,05,09,06,50,0.00
2007,05,09,06,51,0.00
2007,05,09,06,52,0.00
2007,05,09,06,53,0.00
2007,05,09,06,54,0.00
2007,05,09,06,55,0.00
2007,05,09,06,56,0.00
2007,05,09,06,57,0.00
2007,05,09,06,58,0.00
2007,05,09,06,59,0.00
2007,05,09,07,00,0.00
2007,05,09,07,01,0.00
2007,05,09,07,02,0.00
2007,05,09,07,03,0.00
2007,05,09,07,04,0.00
2007,05,09,07,05,0.00
2007,05,09,07,06,0.00
2007,05,09,07,07,0.00
2007,05,09,07,08,0.00
2007,05,09,07,09,0.00
2007,05,09,07,10,0.00
2007,05,09,07,11,0.00
2007,05,09,07,12,0.00
2007,05,09,07,13,0.00
2007,05,09,07,14,0.00
2007,05,09,07,15,0.00
2007,05,09,07,16,0.00
2007,05,09,07,17,0.00
2007,05,09,07,18,0.00
2007,05,09,07,19,0.00
2007,05,09,07,20,0.00
2007,05,09,07,21,0.00
2007,05,09,07,22,0.00
2007,05,09,07,23,3.20
2007,05,09,07,24,1.60
2007,05,09,07,25,1.60
2007,05,09,07,26,0.00
2007,05,09,07,27,1.60
2007,05,09,07,28,0.00
2007,05,09,07,29,0.00
2007,05,09,07,30,3.20
2007,05,09,07,31,0.00
2007,05,09,07,32,0.00
2007,05,09,07,33,0.00
2007,05,09,07,34,0.00
2007,05,09,07,35,1.60
2007,05,09,07,36,1.60
2007,05,09,07,37,1.60
2007,05,09,07,38,0.00
2007,05,09,07,39,1.60
2007,05,09,07,40,1.60
2007,05,09,07,41,1.60
2007,05,09,07,42,3.20
2007,05,09,07,43,0.00
2007,05,09,07,44,0.00
2007,05,09,07,45,0.00
2007,05,09,07,46,0.00
2007,05,09,07,47,0.00
2007,05,09,07,48,0.00
2007,05,09,07,49,0.00
2007,05,09,07,50,0.00
2007,05,09,07,51,0.00
2007,05,09,07,52,1.60
2007,05,09,07,53,0.00
2007,05,09,07,54,0.00
2007,05,09,07,55,0.00
2007,05,09,07,56,6.40
2007,05,09,07,57,1.60
2007,05,09,07,58,1.60
2007,05,09,07,59,1.60
2007,05,09,08,00,1.60
2007,05,09,08,01,1.60
2007,05,09,08,02,0.00
2007,05,09,08,03,8.10
2007,05,09,08,04,3.20
2007,05,09,08,05,1.60
2007,05,09,08,06,14.50
2007,05,09,08,07,6.40
2007,05,09,08,08,6.40
2007,05,09,08,09,8.10
2007,05,09,08,10,14.50
2007,05,09,08,11,11.30
2007,05,09,08,12,1.60
2007,05,09,08,13,3.20
2007,05,09,08,14,9.60
2007,05,09,08,15,11.30
2007,05,09,08,16,16.10
2007,05,09,08,17,14.50
2007,05,09,08,18,8.10
2007,05,09,08,19,11.30
2007,05,09,08,20,11.30
2007,05,09,08,21,11.30
2007,05,09,08,22,11.30
2007,05,09,08,23,14.50
2007,05,09,08,24,16.10
2007,05,09,08,25,12.90
2007,05,09,08,26,12.90
2007,05,09,08,27,9.60
2007,05,09,08,28,8.10
2007,05,09,08,29,9.60
2007,05,09,08,30,4.80
2007,05,09,08,31,9.60
2007,05,09,08,32,9.60
2007,05,09,08,33,4.80
2007,05,09,08,34,1.60
2007,05,09,08,35,4.80
2007,05,09,08,36,6.40
2007,05,09,08,37,6.40
2007,05,09,08,38,4.80
2007,05,09,08,39,6.40
2007,05,09,08,40,6.40
2007,05,09,08,41,8.10
2007,05,09,08,42,8.10
2007,05,09,08,43,6.40
2007,05,09,08,44,6.40
2007,05,09,08,45,8.10
2007,05,09,08,46,8.10
2007,05,09,08,47,6.40
2007,05,09,08,48,0.00
2007,05,09,08,49,1.60
2007,05,09,08,50,1.60
2007,05,09,08,51,3.20
2007,05,09,08,52,4.80
2007,05,09,08,53,4.80
2007,05,09,08,54,4.80
2007,05,09,08,55,0.00
2007,05,09,08,56,1.60
2007,05,09,08,57,1.60
2007,05,09,08,58,0.00
2007,05,09,08,59,0.00
2007,05,09,09,00,4.80
2007,05,09,09,01,3.20
2007,05,09,09,02,1.60
2007,05,09,09,03,1.60
2007,05,09,09,04,6.40
2007,05,09,09,05,3.20
2007,05,09,09,06,1.60
2007,05,09,09,07,6.40
2007,05,09,09,08,4.80
2007,05,09,09,09,6.40
2007,05,09,09,10,4.80
2007,05,09,09,11,8.10
2007,05,09,09,12,6.40
2007,05,09,09,13,8.10
2007,05,09,09,14,6.40
2007,05,09,09,15,6.40
2007,05,09,09,16,0.00
2007,05,09,09,17,3.20
2007,05,09,09,18,0.00
2007,05,09,09,19,6.40
2007,05,09,09,20,9.60
2007,05,09,09,21,6.40
2007,05,09,09,22,0.00
2007,05,09,09,23,3.20
2007,05,09,09,24,3.20
2007,05,09,09,25,4.80
2007,05,09,09,26,3.20
2007,05,09,09,27,4.80
2007,05,09,09,28,0.00
2007,05,09,09,29,0.00
2007,05,09,09,30,1.60
2007,05,09,09,31,0.00
2007,05,09,09,32,0.00
2007,05,09,09,33,0.00
2007,05,09,09,34,0.00
2007,05,09,09,35,0.00
2007,05,09,09,36,1.60
2007,05,09,09,37,3.20
2007,05,09,09,38,1.60
2007,05,09,09,39,0.00
2007,05,09,09,40,0.00
2007,05,09,09,41,1.60
2007,05,09,09,42,1.60
2007,05,09,09,43,3.20
2007,05,09,09,44,4.80
2007,05,09,09,45,9.60
2007,05,09,09,46,8.10
2007,05,09,09,47,6.40
2007,05,09,09,48,4.80
2007,05,09,09,49,0.00
2007,05,09,09,50,9.60
2007,05,09,09,51,6.40
2007,05,09,09,52,8.10
2007,05,09,09,53,1.60
2007,05,09,09,54,16.10
2007,05,09,09,55,1.60
2007,05,09,09,56,9.60
2007,05,09,09,57,1.60
2007,05,09,09,58,3.20
2007,05,09,09,59,8.10
2007,05,09,10,00,9.60
2007,05,09,10,01,12.90
2007,05,09,10,02,8.10
2007,05,09,10,03,9.60
2007,05,09,10,04,6.40
2007,05,09,10,05,9.60
2007,05,09,10,06,14.50
2007,05,09,10,07,9.60
2007,05,09,10,08,8.10
2007,05,09,10,09,9.60
2007,05,09,10,10,6.40
2007,05,09,10,11,8.10
2007,05,09,10,12,8.10
2007,05,09,10,13,6.40
2007,05,09,10,14,11.30
2007,05,09,10,15,6.40
2007,05,09,10,16,3.20
2007,05,09,10,17,6.40
2007,05,09,10,18,11.30
2007,05,09,10,19,11.30
2007,05,09,10,20,6.40
2007,05,09,10,21,6.40
2007,05,09,10,22,4.80
2007,05,09,10,23,6.40
2007,05,09,10,24,4.80
2007,05,09,10,25,6.40
2007,05,09,10,26,4.80
2007,05,09,10,27,4.80
2007,05,09,10,28,8.10
2007,05,09,10,29,9.60
2007,05,09,10,30,6.40
2007,05,09,10,31,3.20
2007,05,09,10,32,3.20
2007,05,09,10,33,8.10
2007,05,09,10,34,8.10
2007,05,09,10,35,6.40
2007,05,09,10,36,6.40
2007,05,09,10,37,3.20
2007,05,09,10,38,4.80
2007,05,09,10,39,8.10
2007,05,09,10,40,9.60
2007,05,09,10,41,9.60
2007,05,09,10,42,8.10
2007,05,09,10,43,3.20
2007,05,09,10,44,4.80
2007,05,09,10,45,4.80
2007,05,09,10,46,1.60
2007,05,09,10,47,3.20
2007,05,09,10,48,1.60
2007,05,09,10,49,6.40
2007,05,09,10,50,4.80
2007,05,09,10,51,8.10
2007,05,09,10,52,8.10
2007,05,09,10,53,4.80
2007,05,09,10,54,9.60
2007,05,09,10,55,6.40
2007,05,09,10,56,11.30
2007,05,09,10,57,8.10
2007,05,09,10,58,8.10
2007,05,09,10,59,8.10
2007,05,09,11,00,11.30
2007,05,09,11,01,11.30
2007,05,09,11,02,9.60
2007,05,09,11,03,0.00
2007,05,09,11,04,8.10
2007,05,09,11,05,8.10
2007,05,09,11,06,16.10
2007,05,09,11,07,9.60
2007,05,09,11,08,14.50
2007,05,09,11,09,14.50
2007,05,09,11,10,14.50
2007,05,09,11,11,8.10
2007,05,09,11,12,9.60
2007,05,09,11,13,14.50
2007,05,09,11,14,9.60
2007,05,09,11,15,11.30
2007,05,09,11,16,8.10
2007,05,09,11,17,14.50
2007,05,09,11,18,8.10
2007,05,09,11,19,11.30
2007,05,09,11,20,11.30
2007,05,09,11,21,11.30
2007,05,09,11,22,9.60
2007,05,09,11,23,9.60
2007,05,09,11,24,8.10
2007,05,09,11,25,9.60
2007,05,09,11,26,20.90
2007,05,09,11,27,9.60
2007,05,09,11,28,11.30
2007,05,09,11,29,9.60
2007,05,09,11,30,9.60
2007,05,09,11,31,16.10
2007,05,09,11,32,14.50
2007,05,09,11,33,8.10
2007,05,09,11,34,8.10
2007,05,09,11,35,14.50
2007,05,09,11,36,16.10
2007,05,09,11,37,9.60
2007,05,09,11,38,9.60
2007,05,09,11,39,6.40
2007,05,09,11,40,14.50
2007,05,09,11,41,14.50
2007,05,09,11,42,11.30
2007,05,09,11,43,9.60
2007,05,09,11,44,8.10
2007,05,09,11,45,6.40
2007,05,09,11,46,8.10
2007,05,09,11,47,16.10
2007,05,09,11,48,14.50
2007,05,09,11,49,11.30
2007,05,09,11,50,1.60
2007,05,09,11,51,8.10
2007,05,09,11,52,16.10
2007,05,09,11,53,9.60
2007,05,09,11,54,4.80
2007,05,09,11,55,9.60
2007,05,09,11,56,8.10
2007,05,09,11,57,9.60
2007,05,09,11,58,11.30
2007,05,09,11,59,8.10
2007,05,09,12,00,14.50
2007,05,09,12,01,8.10
2007,05,09,12,02,9.60
2007,05,09,12,03,11.30
2007,05,09,12,04,16.10
2007,05,09,12,05,14.50
2007,05,09,12,06,9.60
2007,05,09,12,07,16.10
2007,05,09,12,08,14.50
2007,05,09,12,09,16.10
2007,05,09,12,10,9.60
2007,05,09,12,11,14.50
2007,05,09,12,12,6.40
2007,05,09,12,13,4.80
2007,05,09,12,14,11.30
2007,05,09,12,15,14.50
2007,05,09,12,16,9.60
2007,05,09,12,17,9.60
2007,05,09,12,18,6.40
2007,05,09,12,19,8.10
2007,05,09,12,20,8.10
2007,05,09,12,21,14.50
2007,05,09,12,22,9.60
2007,05,09,12,23,6.40
2007,05,09,12,24,16.10
2007,05,09,12,25,6.40
2007,05,09,12,26,9.60
2007,05,09,12,27,11.30
2007,05,09,12,28,9.60
2007,05,09,12,30,8.10
2007,05,09,12,31,11.30
2007,05,09,12,32,9.60
2007,05,09,12,33,6.40
2007,05,09,12,34,11.30
2007,05,09,12,35,6.40
2007,05,09,12,36,11.30
2007,05,09,12,37,8.10
2007,05,09,12,38,11.30
2007,05,09,12,39,14.50
2007,05,09,12,40,6.40
2007,05,09,12,41,14.50
2007,05,09,12,42,11.30
2007,05,09,12,43,9.60
2007,05,09,12,44,14.50
2007,05,09,12,45,9.60
2007,05,09,12,46,9.60
2007,05,09,12,47,9.60
2007,05,09,12,48,6.40
2007,05,09,12,49,11.30
2007,05,09,12,50,8.10
2007,05,09,12,51,9.60
2007,05,09,12,52,4.80
2007,05,09,12,53,4.80
2007,05,09,12,54,6.40
2007,05,09,12,55,9.60
2007,05,09,12,56,14.50
2007,05,09,12,57,9.60
2007,05,09,12,58,14.50
2007,05,09,12,59,8.10
2007,05,09,13,00,9.60
2007,05,09,13,01,14.50
2007,05,09,13,02,4.80
2007,05,09,13,03,12.90
2007,05,09,13,04,16.10
2007,05,09,13,05,11.30
2007,05,09,13,06,11.30
2007,05,09,13,07,0.00
2007,05,09,13,08,9.60
2007,05,09,13,09,9.60
2007,05,09,13,10,8.10
2007,05,09,13,11,8.10
2007,05,09,13,12,6.40
2007,05,09,13,13,9.60
2007,05,09,13,14,9.60
2007,05,09,13,15,16.10
2007,05,09,13,16,9.60
2007,05,09,13,17,3.20
2007,05,09,13,18,6.40
2007,05,09,13,19,9.60
2007,05,09,13,20,8.10
2007,05,09,13,21,11.30
2007,05,09,13,22,16.10
2007,05,09,13,23,9.60
2007,05,09,13,24,16.10
2007,05,09,13,25,14.50
2007,05,09,13,26,14.50
2007,05,09,13,27,9.60
2007,05,09,13,28,8.10
2007,05,09,13,29,9.60
2007,05,09,13,30,11.30
2007,05,09,13,31,14.50
2007,05,09,13,32,14.50
2007,05,09,13,33,4.80
2007,05,09,13,34,14.50
2007,05,09,13,35,11.30
2007,05,09,13,36,14.50
2007,05,09,13,37,16.10
2007,05,09,13,38,9.60
2007,05,09,13,39,9.60
2007,05,09,13,40,14.50
2007,05,09,13,41,16.10
2007,05,09,13,42,17.70
2007,05,09,13,43,8.10
2007,05,09,13,44,16.10
2007,05,09,13,45,19.30
2007,05,09,13,46,11.30
2007,05,09,13,47,20.90
2007,05,09,13,48,14.50
2007,05,09,13,49,12.90
2007,05,09,13,50,17.70
2007,05,09,13,51,11.30
2007,05,09,13,52,9.60
2007,05,09,13,53,8.10
2007,05,09,13,54,19.30
2007,05,09,13,55,12.90
2007,05,09,13,56,19.30
2007,05,09,13,57,19.30
2007,05,09,13,58,17.70
2007,05,09,13,59,17.70
2007,05,09,14,00,19.30
2007,05,09,14,01,14.50
2007,05,09,14,02,9.60
2007,05,09,14,03,16.10
2007,05,09,14,04,17.70
2007,05,09,14,05,16.10
2007,05,09,14,06,9.60
2007,05,09,14,07,9.60
2007,05,09,14,08,20.90
2007,05,09,14,09,16.10
2007,05,09,14,10,14.50
2007,05,09,14,11,9.60
2007,05,09,14,12,8.10
2007,05,09,14,13,8.10
2007,05,09,14,14,9.60
2007,05,09,14,15,9.60
2007,05,09,14,16,9.60
2007,05,09,14,17,9.60
2007,05,09,14,18,4.80
2007,05,09,14,19,9.60
2007,05,09,14,20,20.90
2007,05,09,14,21,17.70
2007,05,09,14,22,17.70
2007,05,09,14,23,14.50
2007,05,09,14,24,11.30
2007,05,09,14,25,16.10
2007,05,09,14,26,8.10
2007,05,09,14,27,17.70
2007,05,09,14,28,9.60
2007,05,09,14,29,11.30
2007,05,09,14,30,16.10
2007,05,09,14,31,17.70
2007,05,09,14,32,16.10
2007,05,09,14,33,16.10
2007,05,09,14,34,11.30
2007,05,09,14,35,17.70
2007,05,09,14,36,19.30
2007,05,09,14,37,8.10
2007,05,09,14,38,14.50
2007,05,09,14,39,19.30
2007,05,09,14,40,14.50
2007,05,09,14,41,17.70
2007,05,09,14,42,16.10
2007,05,09,14,43,16.10
2007,05,09,14,44,8.10
2007,05,09,14,45,9.60
2007,05,09,14,46,8.10
2007,05,09,14,47,14.50
2007,05,09,14,48,12.90
2007,05,09,14,49,14.50
2007,05,09,14,50,11.30
2007,05,09,14,51,14.50
2007,05,09,14,52,8.10
2007,05,09,14,53,19.30
2007,05,09,14,54,17.70
2007,05,09,14,55,14.50
2007,05,09,14,56,16.10
2007,05,09,14,57,9.60
2007,05,09,14,58,9.60
2007,05,09,14,59,12.90
2007,05,09,15,00,11.30
2007,05,09,15,01,16.10
2007,05,09,15,02,19.30
2007,05,09,15,03,11.30
2007,05,09,15,04,12.90
2007,05,09,15,05,8.10
2007,05,09,15,06,8.10
2007,05,09,15,07,8.10
2007,05,09,15,08,16.10
2007,05,09,15,09,16.10
2007,05,09,15,10,14.50
2007,05,09,15,11,11.30
2007,05,09,15,12,8.10
2007,05,09,15,13,16.10
2007,05,09,15,14,14.50
2007,05,09,15,15,9.60
2007,05,09,15,16,11.30
2007,05,09,15,17,9.60
2007,05,09,15,18,11.30
2007,05,09,15,19,8.10
2007,05,09,15,20,16.10
2007,05,09,15,21,16.10
2007,05,09,15,22,14.50
2007,05,09,15,23,11.30
2007,05,09,15,24,16.10
2007,05,09,15,25,11.30
2007,05,09,15,26,9.60
2007,05,09,15,27,11.30
2007,05,09,15,28,8.10
2007,05,09,15,29,12.90
2007,05,09,15,30,16.10
2007,05,09,15,31,11.30
2007,05,09,15,32,14.50
2007,05,09,15,33,14.50
2007,05,09,15,34,12.90
2007,05,09,15,35,14.50
2007,05,09,15,36,14.50
2007,05,09,15,37,11.30
2007,05,09,15,38,9.60
2007,05,09,15,39,11.30
2007,05,09,15,40,14.50
2007,05,09,15,41,17.70
2007,05,09,15,42,16.10
2007,05,09,15,43,8.10
2007,05,09,15,44,4.80
2007,05,09,15,45,0.00
2007,05,09,15,46,14.50
2007,05,09,15,47,12.90
2007,05,09,15,48,12.90
2007,05,09,15,49,11.30
2007,05,09,15,50,11.30
2007,05,09,15,51,11.30
2007,05,09,15,52,6.40
2007,05,09,15,53,6.40
2007,05,09,15,54,4.80
2007,05,09,15,55,4.80
2007,05,09,15,56,9.60
2007,05,09,15,57,11.30
2007,05,09,15,58,9.60
2007,05,09,15,59,6.40
2007,05,09,16,00,11.30
2007,05,09,16,01,16.10
2007,05,09,16,02,17.70
2007,05,09,16,03,17.70
2007,05,09,16,04,14.50
2007,05,09,16,05,19.30
2007,05,09,16,06,9.60
2007,05,09,16,07,8.10
2007,05,09,16,08,3.20
2007,05,09,16,09,9.60
2007,05,09,16,10,9.60
2007,05,09,16,11,6.40
2007,05,09,16,12,9.60
2007,05,09,16,13,9.60
2007,05,09,16,14,8.10
2007,05,09,16,15,9.60
2007,05,09,16,16,14.50
2007,05,09,16,17,9.60
2007,05,09,16,18,12.90
2007,05,09,16,19,11.30
2007,05,09,16,20,17.70
2007,05,09,16,21,14.50
2007,05,09,16,22,16.10
2007,05,09,16,23,11.30
2007,05,09,16,24,14.50
2007,05,09,16,25,9.60
2007,05,09,16,26,19.30
2007,05,09,16,27,12.90
2007,05,09,16,28,17.70
2007,05,09,16,29,16.10
2007,05,09,16,30,9.60
2007,05,09,16,31,14.50
2007,05,09,16,32,11.30
2007,05,09,16,33,11.30
2007,05,09,16,34,6.40
2007,05,09,16,35,11.30
2007,05,09,16,36,11.30
2007,05,09,16,37,9.60
2007,05,09,16,38,11.30
2007,05,09,16,39,14.50
2007,05,09,16,40,11.30
2007,05,09,16,41,6.40
2007,05,09,16,42,12.90
2007,05,09,16,43,9.60
2007,05,09,16,44,6.40
2007,05,09,16,45,6.40
2007,05,09,16,46,6.40
2007,05,09,16,47,6.40
2007,05,09,16,48,11.30
2007,05,09,16,49,9.60
2007,05,09,16,50,12.90
2007,05,09,16,51,8.10
2007,05,09,16,52,3.20
2007,05,09,16,53,6.40
2007,05,09,16,54,8.10
2007,05,09,16,55,3.20
2007,05,09,16,56,9.60
2007,05,09,16,57,8.10
2007,05,09,16,58,9.60
2007,05,09,16,59,8.10
2007,05,09,17,00,6.40
2007,05,09,17,01,8.10
2007,05,09,17,02,8.10
2007,05,09,17,03,4.80
2007,05,09,17,04,3.20
2007,05,09,17,05,8.10
2007,05,09,17,06,6.40
2007,05,09,17,07,6.40
2007,05,09,17,08,6.40
2007,05,09,17,09,4.80
2007,05,09,17,10,11.30
2007,05,09,17,11,6.40
2007,05,09,17,12,3.20
2007,05,09,17,13,6.40
2007,05,09,17,14,6.40
2007,05,09,17,15,8.10
2007,05,09,17,16,9.60
2007,05,09,17,17,6.40
2007,05,09,17,18,4.80
2007,05,09,17,19,6.40
2007,05,09,17,20,4.80
2007,05,09,17,21,14.50
2007,05,09,17,22,1.60
2007,05,09,17,23,6.40
2007,05,09,17,24,9.60
2007,05,09,17,25,8.10
2007,05,09,17,26,6.40
2007,05,09,17,27,6.40
2007,05,09,17,28,9.60
2007,05,09,17,29,9.60
2007,05,09,17,30,11.30
2007,05,09,17,31,8.10
2007,05,09,17,32,11.30
2007,05,09,17,33,8.10
2007,05,09,17,34,9.60
2007,05,09,17,35,4.80
2007,05,09,17,36,3.20
2007,05,09,17,37,9.60
2007,05,09,17,38,9.60
2007,05,09,17,39,6.40
2007,05,09,17,40,6.40
2007,05,09,17,41,9.60
2007,05,09,17,42,9.60
2007,05,09,17,43,9.60
2007,05,09,17,44,9.60
2007,05,09,17,45,11.30
2007,05,09,17,46,8.10
2007,05,09,17,47,11.30
2007,05,09,17,48,8.10
2007,05,09,17,49,8.10
2007,05,09,17,50,3.20
2007,05,09,17,51,6.40
2007,05,09,17,52,9.60
2007,05,09,17,53,8.10
2007,05,09,17,54,9.60
2007,05,09,17,55,9.60
2007,05,09,17,56,8.10
2007,05,09,17,57,0.00